Location: Claflin County Park
(44.8478°N, 87.5507°W)
Time: 02:25:35
(UTC+00:00)

Cosmos 2180 Rocket - Pass Details

Date: 10 December 2025
Orbit: 954 x 1003 km, 82.9° (Epoch: 12 January)

Event Time Altitude Azimuth Distance (km) Brightness Sun altitude
Exits shadow 10:33:53 72° 240° (WSW) 1,036 4.4 -28.0°
Drops below altitude 10° 10:39:52 10° 182° (S) 2,752 6.9 -26.9°
Sets 10:42:24 0° 180° (S) 3,702 7.6 -26.5°
